Location: Chester
(43.2628°N, 72.5951°W)
Time: 00:59:08
(UTC-05:00)

ISS - Pass Details

Date: 02 February 2021
Orbit: 417 x 422 km, 51.6° (Epoch: 07 March)

Event Time Altitude Azimuth Distance (km) Brightness Sun altitude
Rises 19:55:48 0° 293° (WNW) 2,375 1.1 -31.4°
Reaches altitude 10° 19:58:12 10° 277° (W) 1,507 -0.1 -31.9°
Enters shadow 19:58:30 12° 274° (W) 1,417 -0.3 -31.9°
